STARLINK-34621, 64774

Orbit data source: Space-Track

STARLINK-34621, 64774 is a payload satellite owned by SpaceX/Seattle (US) in LEO that was launched on Tue, 08 Jul 2025 UTC via an FALCON 9 launch vehicle from the Air Force Eastern Test Range (AFETR). Payload-class satellites include a variety of spacecraft equipped with specific instruments for various scientific and technological missions. These include communications satellites like Starlink; space stations such as the ISS; scientific satellites like the Hubble; Earth observation satellites from companies like Planet Labs, Umbra, and HawkEye 360; GPS; miniature CubeSats for education and research; and military/defense satellites.

Loading next visibility...
Identifier
64774, 2025-147V
Orbit
LEO
Country
Flag of USUS
Related business
Manufacturer
SpaceX/Seattle
Mission
Operational Commercial Communications
Bus & Motor
STARLINK V2MO, Unknown motor
Mass
575 kg wet, ~530 kg dry
Launch date (UTC)
2025-07-08 (11 months ago)
Launch vehicle
FALCON 9
Launch site
Air Force Eastern Test Range (AFETR)
Object type
Payload
Rocket body
Debris
Shape & HBR
Box + 2 Pan, 17.7 m
Radar Cross Section
36.964 m², Large (>1 m²)

Expand to show TLE details & history
Last TLE update: 1 day ago

TLE from 1 day ago
0 STARLINK-34621
1 64774U 25147V   26170.61864087  .00014503  00000-0  50082-3 0  9994
2 64774  53.1601 129.5717 0001427  89.5638 270.5526 15.30201698 54282
Epoch: 2026-06-19T14:50Z
TLE epoch observation values (Epoch: 2026-06-19T14:50:50.571Z)
Latitude
-0.00003°
Longitude
-0.98406°
Altitude
476.1 km
Speed
7.629 km/s
True Right ascension
08h 38m 17s
True Declination
0° 00' 00"
Sunlit
Object was in daylight at epoch
Visualization orbit readout
Latitude
Unknown
Longitude
Unknown
Altitude
Unknown
Speed
Unknown
Apparent Right ascension
Unknown
Apparent Declination
Unknown
Sunlit
N/A
Visualization observer readout
Local Sidereal Time
07:20:08
Azimuth
Unknown
Elevation
Unknown
Doppler factor
Unknown
Orbital elements
Apogee altitude
476.444 km
Perigee altitude
474.488 km
Semi-major axis
6,853.603 km
Eccentricity
0.00014
Inclination
53.1601°
RAAN
129.5717°
Arg. of periapsis
89.5638°
True anomaly
270.53625°
Mean anomaly
270.5526°
Eccentric anomaly
270.54442°
Mean motion
3.82529 °/min
Orbital period
94.11 mins
BSTAR
0.00050082
Loading maneuver chart data...
Computing Atmospheric mass density...
Loading historical data...
Loading historical data...
Loading historical data...
Loading historical data...
Loading historical data...
Loading historical data...
Loading historical data...

Documentation

Showing up to 5 results
|